[keps] orb10056.2l.amsat

Ray Hoad ray.hoad at mypbmail.com
Thu Feb 25 21:11:26 PST 2010


SB KEPS @ AMSAT  $ORB10056.N
2Line Orbital Elements 10056.AMSAT

HR AMSAT ORBITAL ELEMENTS FOR AMATEUR SATELLITES IN NASA FORMAT
FROM WA5QGD FORT WORTH,TX February 25, 2010
Send Subscribe/unsubscribe to KEPS at http://www.amsat.org/mailman/listinfo/keps
BID: ORB10056.N

DECODE 2-LINE ELSETS WITH THE FOLLOWING KEY:
1 AAAAAU 00  0  0 BBBBB.BBBBBBBB  .CCCCCCCC  00000-0  00000-0 0  DDDZ
2 AAAAA EEE.EEEE FFF.FFFF GGGGGGG HHH.HHHH III.IIII JJ.JJJJJJJJKKKKKZ
KEY: A-CATALOGNUM B-EPOCHTIME C-DECAY D-ELSETNUM E-INCLINATION F-RAAN
G-ECCENTRICITY H-ARGPERIGEE I-MNANOM J-MNMOTION K-ORBITNUM Z-CHECKSUM

TO ALL RADIO AMATEURS BT

AO-07
1 07530U 74089B   10056.63353297 -.00000027  00000-0  10000-3 0  7131
2 07530 101.4104 076.8035 0012025 132.0448 228.1642 12.53577727614472
FO-29
1 24278U 96046B   10055.62411632  .00000001  00000-0  34425-4 0  2541
2 24278 098.5208 260.2776 0351345 055.9179 307.4783 13.52947851667886
SO-33
1 25509U 98061B   10055.45016322  .00000320  00000-0  53367-4 0  6562
2 25509 031.4328 066.0282 0353762 024.1404 337.5391 14.28291608591927
RS-22
1 27939U 03042A   10056.19447761  .00000103  00000-0  28666-4 0   188
2 27939 097.9099 286.3248 0014532 056.1468 304.1129 14.63385216342573
VO-52
1 28650U 05017B   10056.10061577 -.00000012  00000-0  50280-5 0  4431
2 28650 097.7080 113.8326 0025930 283.9061 075.9258 14.81688273260097
SO-67
1 35870U 09049F   10056.79905536  .00000962  00000-0  43894-4 0  4793
2 35870 097.3482 108.6502 0012951 088.1532 024.3020 15.22906810 24512
HO-68
1 36122U 09072B   10056.74418607 -.00000045  00000-0  00000 0 0  1420
2 36122 100.4848 118.2436 0007177 229.9221 130.1267 13.16279839  9553
UO-11
1 14781U 84021B   10056.11440102  .00000273  00000-0  43479-4 0  1839
2 14781 098.0709 107.4339 0007980 240.1450 119.8976 14.79772804395235
AO-16
1 20439U 90005D   10055.89241841  .00000051  00000-0  34721-4 0  8312
2 20439 098.3180 018.3014 0011575 136.3586 223.8517 14.31849803 49313
LO-19
1 20442U 90005G   10056.74667364 -.00000015  00000-0  96367-5 0  7420
2 20442 098.2799 025.3762 0012820 128.7657 231.4692 14.32082373 49601
AO-27
1 22825U 93061C   10056.84571807 -.00000105  00000-0 -24559-4 0  4655
2 22825 098.4719 007.7474 0007714 233.6134 126.4335 14.29287270856149
IO-26
1 22826U 93061D   10056.86105389  .00000030  00000-0  28343-4 0  2014
2 22826 098.4661 008.4070 0008166 229.2654 130.7824 14.29542221856259
GO-32
1 25397U 98043D   10056.80722328 -.00000083  00000-0 -18951-4 0  1212
2 25397 098.3183 070.3804 0000845 173.1533 186.9656 14.23171564604209
NO-44
1 26931U 01043C   10056.19675298  .00000109  00000-0  74978-4 0  3957
2 26931 067.0524 132.5107 0006605 264.0099 096.0233 14.29585338438740
SO-50
1 27607U 02058C   10056.28189856  .00000075  00000-0  33557-4 0  1111
2 27607 064.5610 336.4075 0037997 128.5867 231.8656 14.71503656385911
CO-55
1 27844U 03031E   10056.53792619  .00000076  00000-0  55686-4 0  7889
2 27844 098.7135 067.1063 0010355 129.4214 230.7876 14.20686851345231
CO-57
1 27848U 03031J   10055.70603994  .00000051  00000-0  44253-4 0  7395
2 27848 098.7187 065.3642 0010457 135.4247 224.7767 14.20481905345078
AO-51
1 28375U 04025K   10056.53910084  .00000032  00000-0  21975-4 0  6123
2 28375 098.0570 056.4198 0085004 075.8604 285.2021 14.40670688297435
GENESAT1
1 29655U 06058C   10056.33494866  .00050583  00000-0  32289-3 0  9584
2 29655 040.0201 028.5989 0006369 244.2394 115.7766 15.75420849182255
CP3
1 31129U 07012N   10056.11542037  .00000094  00000-0  32515-4 0  5136
2 31129 097.9539 101.6085 0101597 221.1053 138.2494 14.52213717151593
CO-65
1 32785U 08021C   10055.71988635  .00000010  00000-0  80051-5 0  6126
2 32785 097.9101 122.1393 0013946 292.8132 067.1633 14.81590646 98833
KKS-1
1 33493U 09002B   10056.77143461  .00000729  00000-0  10118-3 0  2432
2 33493 098.0713 175.4115 0020942 139.0434 221.2359 14.80870584 58997
SOHLA-1
1 33496U 09002E   10056.21779338  .00000098  00000-0  24736-4 0   341
2 33496 098.0470 166.8136 0006286 190.1212 169.9875 14.69472200 58434
NOAA-10
1 16969U 86073A   10056.48909207 -.00000051  00000-0 -27701-5 0  9705
2 16969 098.6704 086.4459 0012566 173.9698 186.1653 14.27407179219640
NOAA-11
1 19531U 88089A   10056.29873256  .00000244  00000-0  14886-3 0  9851
2 19531 098.7696 147.2276 0012204 105.4889 254.7647 14.14916950105314
NOAA-12
1 21263U 91032A   10056.40735022  .00000064  00000-0  26891-4 0  4663
2 21263 098.7674 069.5586 0013496 126.4480 233.8434 14.25618476976478
MET-3/5
1 21655U 91056A   10056.35396909  .00000051  00000-0  10000-3 0  7455
2 21655 082.5561 027.6406 0012235 270.0346 089.9466 13.17020603890954
MET-2/21
1 22782U 93055A   10056.71161767  .00000083  00000-0  61726-4 0  7064
2 22782 082.5512 340.8860 0022546 359.7781 000.3369 13.83644115832666
OKEAN-4
1 23317U 94066A   10056.77460036  .00000328  00000-0  37596-4 0  1636
2 23317 082.5385 097.8535 0020366 247.9481 111.9562 14.82773223829944
NOAA-14
1 23455U 94089A   10056.39364587  .00000011  00000-0  29156-4 0  9603
2 23455 098.8849 137.8917 0009153 188.3487 171.7548 14.13779631781708
NOAA-15
1 25338U 98030A   10056.49756599  .00000173  00000-0  92841-4 0  2809
2 25338 098.6105 045.4746 0011443 043.5341 316.6748 14.24809503612847
RESURS
1 25394U 98043A   10055.65864147 -.00000037  00000-0  17578-5 0  4392
2 25394 098.3150 079.8199 0001354 152.3845 207.7413 14.24192966604339
FENGYUN1
1 25730U 99025A   10056.39878191  .00000083  00000-0  73907-4 0  9812
2 25730 098.7772 024.3030 0023082 221.1484 138.7989 14.08170688555955
OKEAN-0
1 25860U 99039A   10055.90463829  .00000106  00000-0  23670-4 0  9228
2 25860 097.8199 032.5006 0001861 079.3596 280.7828 14.73616807570366
NOAA-16
1 26536U 00055A   10056.52302422  .00000212  00000-0  13992-3 0  7578
2 26536 099.1771 071.3292 0009812 292.1258 067.8891 14.12548084486061
NOAA-17
1 27453U 02032A   10056.49778880 -.00000005  00000-0  15745-4 0  7632
2 27453 098.4479 111.3638 0012747 103.3579 256.9030 14.24133627398802
NOAA-18
1 28654U 05018A   10056.50111105 -.00000149  00000-0 -57543-4 0  2497
2 28654 098.9382 003.1535 0014698 012.0714 348.0799 14.11329528245687
NOAA-19
1 33591U 09005A   10056.53572529  .00000373  00000-0  23140-3 0  4503
2 33591 098.7769 001.0909 0013357 244.2778 115.6993 14.11030010 54162
HUBBLE
1 20580U 90037B   10055.73988967  .00000618  00000-0  34576-4 0  5273
2 20580 028.4693 253.9101 0003699 086.8123 273.2854 15.00906071887840
ISS
1 25544U 98067A   10057.07319131  .00013464  00000-0  99027-4 0  6523
2 25544 051.6465 081.0210 0007015 346.8094 056.6118 15.73423637645977
CO-58
1 28895U 05043F   10055.85040875  .00000085  00000-0  27289-4 0  5207
2 28895 098.0324 303.9496 0016833 277.8875 082.0448 14.59850529230592
FALCON
1 30776U 07006E   10056.92657078  .00001014  00000-0  75920-4 0  7735
2 30776 035.4339 359.6990 0001964 307.8277 052.2265 15.03494358163304
MAST
1 31126U 07012K   10056.70639820  .00000073  00000-0  26975-4 0  8060
2 31126 097.9531 104.4054 0093843 212.3131 147.2292 14.53557068151869
CAPE1
1 31130U 07012P   10056.64970098  .00000194  00000-0  55623-4 0  8238
2 31130 097.9546 101.9865 0102140 219.5774 139.7938 14.52139914151470
COMPASS
1 32787U 08021E   10055.80677561  .00000341  00000-0  49968-4 0  6040
2 32787 097.9058 122.0514 0014972 293.7863 066.1794 14.81769642 98854
AAUSAT2
1 32788U 08021F   10056.83325805  .00000768  00000-0  10360-3 0  5995
2 32788 097.9100 123.1742 0014485 291.3132 068.6454 14.81908847 99011
DO-64
1 32789U 08021G   10056.71552613  .00000515  00000-0  71634-4 0  6153
2 32789 097.9140 123.4110 0014577 288.4783 071.4818 14.81981861 98998
CO-66
1 32791U 08021J   10056.15070000  .00000679  00000-0  93083-4 0  5959
2 32791 097.9072 122.4172 0015087 290.7746 069.1880 14.81576125 98866
RS-30
1 32953U 08025A   10056.65141016  .00000010  00000-0  00000 0 0  5348
2 32953 082.5001 099.0463 0018593 350.4938 009.5788 12.43003733 79884
TACSAT-3
1 35001U 09028A   10056.66087079  .00007186  00000-0  17707-3 0  2241
2 35001 040.4542 163.4494 0023221 252.0084 107.8195 15.40470883 43426
PHARMSAT
1 35002U 09028B   10055.68450238  .00006507  00000-0  15719-3 0  2139
2 35002 040.4697 167.7582 0026198 248.8230 110.9784 15.41108333 43287
HAWKSAT1
1 35003U 09028C   10056.42473523  .00012719  00000-0  28371-3 0  2247
2 35003 040.4603 160.7812 0025041 260.4057 099.3923 15.42951636 43432
CP6
1 35004U 09028D   10056.59674608  .00014676  00000-0  32202-3 0  2177
2 35004 040.4627 159.4616 0024962 261.1864 098.6125 15.43356987 43458
AEROCUB3
1 35005U 09028E   10056.41717158  .00029768  00000-0  62603-3 0  2308
2 35005 040.4712 161.0325 0021303 265.1901 094.6466 15.44386275 43427
DRAGNSAT
1 35690U 09038B   10056.43471946  .00284500  48484-4  37336-3 0  2813
2 35690 051.6309 063.5405 0003752 095.5220 264.6356 16.06351337 33364
POLLUX
1 35693U 09038E   10056.49563741  .00114414  16894-4  20946-3 0  2788
2 35693 051.6368 065.5335 0010590 120.8029 239.4073 16.01023167 33316
CASTOR
1 35694U 09038F   10056.85685113  .00043127  00000-0  15531-3 0  2062
2 35694 051.6395 069.6201 0004559 095.4438 264.7107 15.88223211 33295
METEOR-M
1 35865U 09049A   10056.80626229  .00000176  00000-0  10000-3 0  1367
2 35865 098.7744 111.3274 0002260 346.2069 013.8998 14.21828836 22899
RS-38
1 35869U 09049E   10056.22660443  .00000176  00000-0  10000-3 0  1385
2 35869 098.7741 110.7730 0004393 339.9476 020.1485 14.21976080 22819
/EX




More information about the Keps mailing list